Year,Month,Day,Hour,Minute,Value (Times are PST for temperature in C)
2019,08,05,00,00,18.40
2019,08,05,00,01,18.40
2019,08,05,00,02,18.40
2019,08,05,00,03,18.40
2019,08,05,00,04,18.30
2019,08,05,00,05,18.30
2019,08,05,00,06,18.30
2019,08,05,00,07,18.30
2019,08,05,00,08,18.20
2019,08,05,00,09,18.20
2019,08,05,00,10,18.20
2019,08,05,00,11,18.20
2019,08,05,00,12,18.20
2019,08,05,00,13,18.10
2019,08,05,00,14,18.10
2019,08,05,00,15,18.10
2019,08,05,00,16,18.10
2019,08,05,00,17,18.10
2019,08,05,00,18,18.00
2019,08,05,00,19,18.00
2019,08,05,00,20,17.90
2019,08,05,00,21,17.90
2019,08,05,00,22,17.90
2019,08,05,00,23,17.80
2019,08,05,00,24,17.80
2019,08,05,00,25,17.80
2019,08,05,00,26,17.80
2019,08,05,00,27,17.70
2019,08,05,00,28,17.70
2019,08,05,00,29,17.70
2019,08,05,00,30,17.70
2019,08,05,00,31,17.70
2019,08,05,00,32,17.70
2019,08,05,00,33,17.70
2019,08,05,00,34,17.60
2019,08,05,00,35,17.60
2019,08,05,00,36,17.60
2019,08,05,00,37,17.60
2019,08,05,00,38,17.50
2019,08,05,00,39,17.50
2019,08,05,00,40,17.50
2019,08,05,00,41,17.40
2019,08,05,00,42,17.40
2019,08,05,00,43,17.40
2019,08,05,00,44,17.40
2019,08,05,00,45,17.30
2019,08,05,00,46,17.30
2019,08,05,00,47,17.30
2019,08,05,00,48,17.30
2019,08,05,00,49,17.20
2019,08,05,00,50,17.20
2019,08,05,00,51,17.20
2019,08,05,00,52,17.20
2019,08,05,00,53,17.20
2019,08,05,00,54,17.10
2019,08,05,00,55,17.10
2019,08,05,00,56,17.10
2019,08,05,00,57,17.10
2019,08,05,00,58,17.10
2019,08,05,00,59,17.10
2019,08,05,01,00,17.00
2019,08,05,01,01,17.00
2019,08,05,01,02,17.00
2019,08,05,01,03,16.90
2019,08,05,01,04,16.90
2019,08,05,01,05,16.90
2019,08,05,01,06,16.90
2019,08,05,01,07,16.90
2019,08,05,01,08,16.90
2019,08,05,01,09,16.80
2019,08,05,01,10,16.80
2019,08,05,01,11,16.80
2019,08,05,01,12,16.80
2019,08,05,01,13,16.80
2019,08,05,01,14,16.80
2019,08,05,01,15,16.70
2019,08,05,01,16,16.70
2019,08,05,01,17,16.70
2019,08,05,01,18,16.70
2019,08,05,01,19,16.70
2019,08,05,01,20,16.70
2019,08,05,01,21,16.70
2019,08,05,01,22,16.70
2019,08,05,01,23,16.70
2019,08,05,01,24,16.60
2019,08,05,01,25,16.60
2019,08,05,01,26,16.60
2019,08,05,01,27,16.60
2019,08,05,01,28,16.60
2019,08,05,01,29,16.60
2019,08,05,01,30,16.60
2019,08,05,01,31,16.50
2019,08,05,01,32,16.50
2019,08,05,01,33,16.50
2019,08,05,01,34,16.40
2019,08,05,01,35,16.40
2019,08,05,01,36,16.40
2019,08,05,01,37,16.40
2019,08,05,01,38,16.40
2019,08,05,01,39,16.30
2019,08,05,01,40,16.30
2019,08,05,01,41,16.30
2019,08,05,01,42,16.30
2019,08,05,01,43,16.30
2019,08,05,01,44,16.20
2019,08,05,01,45,16.20
2019,08,05,01,46,16.20
2019,08,05,01,47,16.20
2019,08,05,01,48,16.20
2019,08,05,01,49,16.10
2019,08,05,01,50,16.10
2019,08,05,01,51,16.10
2019,08,05,01,52,16.10
2019,08,05,01,53,16.10
2019,08,05,01,54,16.00
2019,08,05,01,55,16.00
2019,08,05,01,56,16.00
2019,08,05,01,57,16.00
2019,08,05,01,58,16.00
2019,08,05,01,59,16.00
2019,08,05,02,00,16.00
2019,08,05,02,01,16.00
2019,08,05,02,02,16.00
2019,08,05,02,03,16.00
2019,08,05,02,04,15.90
2019,08,05,02,05,15.90
2019,08,05,02,06,15.90
2019,08,05,02,07,15.90
2019,08,05,02,08,15.90
2019,08,05,02,09,15.80
2019,08,05,02,10,15.80
2019,08,05,02,11,15.80
2019,08,05,02,12,15.80
2019,08,05,02,13,15.80
2019,08,05,02,14,15.80
2019,08,05,02,15,15.70
2019,08,05,02,16,15.70
2019,08,05,02,17,15.70
2019,08,05,02,18,15.70
2019,08,05,02,19,15.70
2019,08,05,02,20,15.70
2019,08,05,02,21,15.70
2019,08,05,02,22,15.60
2019,08,05,02,23,15.60
2019,08,05,02,24,15.60
2019,08,05,02,25,15.60
2019,08,05,02,26,15.60
2019,08,05,02,27,15.60
2019,08,05,02,28,15.60
2019,08,05,02,29,15.50
2019,08,05,02,30,15.50
2019,08,05,02,31,15.50
2019,08,05,02,32,15.40
2019,08,05,02,33,15.40
2019,08,05,02,34,15.40
2019,08,05,02,35,15.40
2019,08,05,02,36,15.40
2019,08,05,02,37,15.30
2019,08,05,02,38,15.30
2019,08,05,02,39,15.30
2019,08,05,02,40,15.30
2019,08,05,02,41,15.30
2019,08,05,02,42,15.30
2019,08,05,02,43,15.30
2019,08,05,02,44,15.20
2019,08,05,02,45,15.20
2019,08,05,02,46,15.20
2019,08,05,02,47,15.20
2019,08,05,02,48,15.20
2019,08,05,02,49,15.10
2019,08,05,02,50,15.10
2019,08,05,02,51,15.10
2019,08,05,02,52,15.10
2019,08,05,02,53,15.10
2019,08,05,02,54,15.10
2019,08,05,02,55,15.00
2019,08,05,02,56,15.00
2019,08,05,02,57,15.00
2019,08,05,02,58,14.90
2019,08,05,02,59,14.90
2019,08,05,03,00,14.90
2019,08,05,03,01,14.90
2019,08,05,03,02,14.90
2019,08,05,03,03,14.80
2019,08,05,03,04,14.80
2019,08,05,03,05,14.80
2019,08,05,03,06,14.80
2019,08,05,03,07,14.80
2019,08,05,03,08,14.80
2019,08,05,03,09,14.80
2019,08,05,03,10,14.80
2019,08,05,03,11,14.80
2019,08,05,03,12,14.80
2019,08,05,03,13,14.80
2019,08,05,03,14,14.70
2019,08,05,03,15,14.70
2019,08,05,03,16,14.70
2019,08,05,03,17,14.70
2019,08,05,03,18,14.70
2019,08,05,03,19,14.70
2019,08,05,03,20,14.70
2019,08,05,03,21,14.70
2019,08,05,03,22,14.60
2019,08,05,03,23,14.60
2019,08,05,03,24,14.60
2019,08,05,03,25,14.60
2019,08,05,03,26,14.60
2019,08,05,03,27,14.60
2019,08,05,03,28,14.60
2019,08,05,03,29,14.60
2019,08,05,03,30,14.50
2019,08,05,03,31,14.50
2019,08,05,03,32,14.50
2019,08,05,03,33,14.50
2019,08,05,03,34,14.50
2019,08,05,03,35,14.50
2019,08,05,03,36,14.40
2019,08,05,03,37,14.40
2019,08,05,03,38,14.40
2019,08,05,03,39,14.40
2019,08,05,03,40,14.40
2019,08,05,03,41,14.40
2019,08,05,03,42,14.30
2019,08,05,03,43,14.30
2019,08,05,03,44,14.30
2019,08,05,03,45,14.30
2019,08,05,03,46,14.30
2019,08,05,03,47,14.30
2019,08,05,03,48,14.30
2019,08,05,03,49,14.30
2019,08,05,03,50,14.30
2019,08,05,03,51,14.30
2019,08,05,03,52,14.30
2019,08,05,03,53,14.20
2019,08,05,03,54,14.20
2019,08,05,03,55,14.20
2019,08,05,03,56,14.20
2019,08,05,03,57,14.20
2019,08,05,03,58,14.20
2019,08,05,03,59,14.20
2019,08,05,04,00,14.20
2019,08,05,04,01,14.20
2019,08,05,04,02,14.10
2019,08,05,04,03,14.10
2019,08,05,04,04,14.10
2019,08,05,04,05,14.10
2019,08,05,04,06,14.10
2019,08,05,04,07,14.10
2019,08,05,04,08,14.00
2019,08,05,04,09,14.00
2019,08,05,04,10,14.00
2019,08,05,04,11,13.90
2019,08,05,04,12,13.90
2019,08,05,04,13,13.90
2019,08,05,04,14,13.90
2019,08,05,04,15,13.90
2019,08,05,04,16,13.90
2019,08,05,04,17,13.90
2019,08,05,04,18,13.90
2019,08,05,04,19,13.90
2019,08,05,04,20,13.90
2019,08,05,04,21,13.80
2019,08,05,04,22,13.80
2019,08,05,04,23,13.80
2019,08,05,04,24,13.80
2019,08,05,04,25,13.80
2019,08,05,04,26,13.80
2019,08,05,04,27,13.80
2019,08,05,04,28,13.80
2019,08,05,04,29,13.80
2019,08,05,04,30,13.70
2019,08,05,04,31,13.70
2019,08,05,04,32,13.70
2019,08,05,04,33,13.70
2019,08,05,04,34,13.70
2019,08,05,04,35,13.70
2019,08,05,04,36,13.70
2019,08,05,04,37,13.70
2019,08,05,04,38,13.70
2019,08,05,04,39,13.70
2019,08,05,04,40,13.70
2019,08,05,04,41,13.70
2019,08,05,04,42,13.70
2019,08,05,04,43,13.60
2019,08,05,04,44,13.60
2019,08,05,04,45,13.60
2019,08,05,04,46,13.60
2019,08,05,04,47,13.60
2019,08,05,04,48,13.60
2019,08,05,04,49,13.60
2019,08,05,04,50,13.60
2019,08,05,04,51,13.60
2019,08,05,04,52,13.50
2019,08,05,04,53,13.50
2019,08,05,04,54,13.50
2019,08,05,04,55,13.40
2019,08,05,04,56,13.40
2019,08,05,04,57,13.40
2019,08,05,04,58,13.40
2019,08,05,04,59,13.40
2019,08,05,05,00,13.40
2019,08,05,05,01,13.40
2019,08,05,05,02,13.40
2019,08,05,05,03,13.40
2019,08,05,05,04,13.40
2019,08,05,05,05,13.40
2019,08,05,05,06,13.30
2019,08,05,05,07,13.30
2019,08,05,05,08,13.30
2019,08,05,05,09,13.30
2019,08,05,05,10,13.30
2019,08,05,05,11,13.30
2019,08,05,05,12,13.30
2019,08,05,05,13,13.30
2019,08,05,05,14,13.30
2019,08,05,05,15,13.30
2019,08,05,05,16,13.30
2019,08,05,05,17,13.30
2019,08,05,05,18,13.30
2019,08,05,05,19,13.30
2019,08,05,05,20,13.30
2019,08,05,05,21,13.20
2019,08,05,05,22,13.20
2019,08,05,05,23,13.20
2019,08,05,05,24,13.20
2019,08,05,05,25,13.20
2019,08,05,05,26,13.20
2019,08,05,05,27,13.20
2019,08,05,05,28,13.20
2019,08,05,05,29,13.20
2019,08,05,05,30,13.20
2019,08,05,05,31,13.20
2019,08,05,05,32,13.20
2019,08,05,05,33,13.20
2019,08,05,05,34,13.20
2019,08,05,05,35,13.20
2019,08,05,05,36,13.20
2019,08,05,05,37,13.20
2019,08,05,05,38,13.20
2019,08,05,05,39,13.20
2019,08,05,05,40,13.20
2019,08,05,05,41,13.20
2019,08,05,05,42,13.10
2019,08,05,05,43,13.10
2019,08,05,05,44,13.10
2019,08,05,05,45,13.10
2019,08,05,05,46,13.10
2019,08,05,05,47,13.10
2019,08,05,05,48,13.10
2019,08,05,05,49,13.10
2019,08,05,05,50,13.10
2019,08,05,05,51,13.10
2019,08,05,05,52,13.10
2019,08,05,05,53,13.00
2019,08,05,05,54,13.00
2019,08,05,05,55,13.00
2019,08,05,05,56,13.00
2019,08,05,05,57,13.00
2019,08,05,05,58,13.00
2019,08,05,05,59,12.90
2019,08,05,06,00,12.90
2019,08,05,06,01,12.90
2019,08,05,06,02,12.90
2019,08,05,06,03,12.90
2019,08,05,06,04,12.90
2019,08,05,06,05,12.90
2019,08,05,06,06,12.90
2019,08,05,06,07,12.80
2019,08,05,06,08,12.80
2019,08,05,06,09,12.80
2019,08,05,06,10,12.80
2019,08,05,06,11,12.80
2019,08,05,06,12,12.80
2019,08,05,06,13,12.80
2019,08,05,06,14,12.80
2019,08,05,06,15,12.80
2019,08,05,06,16,12.80
2019,08,05,06,17,12.80
2019,08,05,06,18,12.80
2019,08,05,06,19,12.80
2019,08,05,06,20,12.80
2019,08,05,06,21,12.80
2019,08,05,06,22,12.70
2019,08,05,06,23,12.70
2019,08,05,06,24,12.70
2019,08,05,06,25,12.70
2019,08,05,06,26,12.70
2019,08,05,06,27,12.70
2019,08,05,06,28,12.70
2019,08,05,06,29,12.70
2019,08,05,06,30,12.70
2019,08,05,06,31,12.70
2019,08,05,06,32,12.60
2019,08,05,06,33,12.60
2019,08,05,06,34,12.60
2019,08,05,06,35,12.60
2019,08,05,06,36,12.60
2019,08,05,06,37,12.70
2019,08,05,06,38,12.70
2019,08,05,06,39,12.70
2019,08,05,06,40,12.70
2019,08,05,06,41,12.70
2019,08,05,06,42,12.70
2019,08,05,06,43,12.70
2019,08,05,06,44,12.70
2019,08,05,06,45,12.70
2019,08,05,06,46,12.70
2019,08,05,06,47,12.70
2019,08,05,06,48,12.70
2019,08,05,06,49,12.70
2019,08,05,06,50,12.70
2019,08,05,06,51,12.70
2019,08,05,06,52,12.70
2019,08,05,06,53,12.70
2019,08,05,06,54,12.70
2019,08,05,06,55,12.70
2019,08,05,06,56,12.70
2019,08,05,06,57,12.70
2019,08,05,06,58,12.70
2019,08,05,06,59,12.80
2019,08,05,07,00,12.80
2019,08,05,07,01,12.80
2019,08,05,07,02,12.80
2019,08,05,07,03,12.90
2019,08,05,07,04,12.90
2019,08,05,07,05,12.90
2019,08,05,07,06,13.00
2019,08,05,07,07,13.10
2019,08,05,07,08,13.10
2019,08,05,07,09,13.20
2019,08,05,07,10,13.20
2019,08,05,07,11,13.20
2019,08,05,07,12,13.30
2019,08,05,07,13,13.30
2019,08,05,07,14,13.40
2019,08,05,07,15,13.40
2019,08,05,07,16,13.50
2019,08,05,07,17,13.60
2019,08,05,07,18,13.70
2019,08,05,07,19,13.70
2019,08,05,07,20,13.80
2019,08,05,07,21,13.90
2019,08,05,07,22,13.90
2019,08,05,07,23,14.10
2019,08,05,07,24,14.10
2019,08,05,07,25,14.20
2019,08,05,07,26,14.30
2019,08,05,07,27,14.40
2019,08,05,07,28,14.50
2019,08,05,07,29,14.60
2019,08,05,07,30,14.70
2019,08,05,07,31,14.70
2019,08,05,07,32,14.80
2019,08,05,07,33,14.80
2019,08,05,07,34,14.90
2019,08,05,07,35,15.00
2019,08,05,07,36,15.10
2019,08,05,07,37,15.10
2019,08,05,07,38,15.20
2019,08,05,07,39,15.30
2019,08,05,07,40,15.30
2019,08,05,07,41,15.40
2019,08,05,07,42,15.50
2019,08,05,07,43,15.60
2019,08,05,07,44,15.60
2019,08,05,07,45,15.70
2019,08,05,07,46,15.70
2019,08,05,07,47,15.80
2019,08,05,07,48,15.80
2019,08,05,07,49,15.80
2019,08,05,07,50,15.80
2019,08,05,07,51,15.80
2019,08,05,07,52,15.80
2019,08,05,07,53,15.90
2019,08,05,07,54,15.90
2019,08,05,07,55,16.00
2019,08,05,07,56,16.10
2019,08,05,07,57,16.10
2019,08,05,07,58,16.20
2019,08,05,07,59,16.30
2019,08,05,08,00,16.30
2019,08,05,08,01,16.40
2019,08,05,08,02,16.50
2019,08,05,08,03,16.60
2019,08,05,08,04,16.60
2019,08,05,08,05,16.70
2019,08,05,08,06,16.70
2019,08,05,08,07,16.70
2019,08,05,08,08,16.80
2019,08,05,08,09,16.80
2019,08,05,08,10,16.80
2019,08,05,08,11,16.70
2019,08,05,08,12,16.70
2019,08,05,08,13,16.70
2019,08,05,08,14,16.70
2019,08,05,08,15,16.60
2019,08,05,08,16,16.60
2019,08,05,08,17,16.60
2019,08,05,08,18,16.50
2019,08,05,08,19,16.40
2019,08,05,08,20,16.40
2019,08,05,08,21,16.40
2019,08,05,08,22,16.40
2019,08,05,08,23,16.40
2019,08,05,08,24,16.40
2019,08,05,08,25,16.40
2019,08,05,08,26,16.40
2019,08,05,08,27,16.50
2019,08,05,08,28,16.60
2019,08,05,08,29,16.60
2019,08,05,08,30,16.60
2019,08,05,08,31,16.70
2019,08,05,08,32,16.70
2019,08,05,08,33,16.70
2019,08,05,08,34,16.80
2019,08,05,08,35,16.80
2019,08,05,08,36,16.80
2019,08,05,08,37,16.90
2019,08,05,08,38,16.90
2019,08,05,08,39,16.90
2019,08,05,08,40,17.00
2019,08,05,08,41,17.10
2019,08,05,08,42,17.20
2019,08,05,08,43,17.20
2019,08,05,08,44,17.30
2019,08,05,08,45,17.30
2019,08,05,08,46,17.30
2019,08,05,08,47,17.40
2019,08,05,08,48,17.40
2019,08,05,08,49,17.40
2019,08,05,08,50,17.40
2019,08,05,08,51,17.40
2019,08,05,08,52,17.40
2019,08,05,08,53,17.40
2019,08,05,08,54,17.40
2019,08,05,08,55,17.40
2019,08,05,08,56,17.40
2019,08,05,08,57,17.40
2019,08,05,08,58,17.40
2019,08,05,08,59,17.30
2019,08,05,09,00,17.40
2019,08,05,09,01,17.40
2019,08,05,09,02,17.40
2019,08,05,09,03,17.50
2019,08,05,09,04,17.60
2019,08,05,09,05,17.60
2019,08,05,09,06,17.60
2019,08,05,09,07,17.60
2019,08,05,09,08,17.70
2019,08,05,09,09,17.70
2019,08,05,09,10,17.80
2019,08,05,09,11,17.80
2019,08,05,09,12,17.80
2019,08,05,09,13,17.90
2019,08,05,09,14,17.90
2019,08,05,09,15,18.00
2019,08,05,09,16,18.10
2019,08,05,09,17,18.10
2019,08,05,09,18,18.20
2019,08,05,09,19,18.20
2019,08,05,09,20,18.30
2019,08,05,09,21,18.30
2019,08,05,09,22,18.40
2019,08,05,09,23,18.40
2019,08,05,09,24,18.40
2019,08,05,09,25,18.40
2019,08,05,09,26,18.40
2019,08,05,09,27,18.50
2019,08,05,09,28,18.60
2019,08,05,09,29,18.60
2019,08,05,09,30,18.70
2019,08,05,09,31,18.70
2019,08,05,09,32,18.80
2019,08,05,09,33,18.90
2019,08,05,09,34,18.90
2019,08,05,09,35,19.10
2019,08,05,09,36,19.10
2019,08,05,09,37,19.10
2019,08,05,09,38,19.20
2019,08,05,09,39,19.20
2019,08,05,09,40,19.30
2019,08,05,09,41,19.30
2019,08,05,09,42,19.30
2019,08,05,09,43,19.30
2019,08,05,09,44,19.40
2019,08,05,09,45,19.40
2019,08,05,09,46,19.40
2019,08,05,09,47,19.50
2019,08,05,09,48,19.60
2019,08,05,09,49,19.60
2019,08,05,09,50,19.70
2019,08,05,09,51,19.80
2019,08,05,09,52,19.90
2019,08,05,09,53,19.90
2019,08,05,09,54,19.90
2019,08,05,09,55,20.00
2019,08,05,09,56,20.10
2019,08,05,09,57,20.10
2019,08,05,09,58,20.20
2019,08,05,09,59,20.20
2019,08,05,10,00,20.30
2019,08,05,10,01,20.30
2019,08,05,10,02,20.30
2019,08,05,10,03,20.30
2019,08,05,10,04,20.30
2019,08,05,10,05,20.40
2019,08,05,10,06,20.40
2019,08,05,10,07,20.40
2019,08,05,10,08,20.40
2019,08,05,10,09,20.40
2019,08,05,10,10,20.40
2019,08,05,10,11,20.40
2019,08,05,10,12,20.40
2019,08,05,10,13,20.50
2019,08,05,10,14,20.60
2019,08,05,10,15,20.60
2019,08,05,10,16,20.60
2019,08,05,10,17,20.70
2019,08,05,10,18,20.70
2019,08,05,10,19,20.70
2019,08,05,10,20,20.70
2019,08,05,10,21,20.70
2019,08,05,10,22,20.70
2019,08,05,10,23,20.80
2019,08,05,10,24,20.80
2019,08,05,10,25,20.80
2019,08,05,10,26,20.80
2019,08,05,10,27,20.70
2019,08,05,10,28,20.70
2019,08,05,10,29,20.80
2019,08,05,10,30,20.80
2019,08,05,10,31,20.80
2019,08,05,10,32,20.80
2019,08,05,10,33,20.90
2019,08,05,10,34,21.00
2019,08,05,10,35,21.10
2019,08,05,10,36,21.20
2019,08,05,10,37,21.30
2019,08,05,10,38,21.50
2019,08,05,10,39,21.60
2019,08,05,10,40,21.70
2019,08,05,10,41,21.80
2019,08,05,10,42,21.90
2019,08,05,10,43,22.00
2019,08,05,10,44,22.10
2019,08,05,10,45,22.20
2019,08,05,10,46,22.30
2019,08,05,10,47,22.40
2019,08,05,10,48,22.50
2019,08,05,10,49,22.60
2019,08,05,10,50,22.70
2019,08,05,10,51,22.80
2019,08,05,10,52,22.80
2019,08,05,10,53,22.80
2019,08,05,10,54,22.80
2019,08,05,10,55,22.90
2019,08,05,10,56,22.90
2019,08,05,10,57,22.80
2019,08,05,10,58,22.80
2019,08,05,10,59,22.80
2019,08,05,11,00,22.80
2019,08,05,11,01,22.80
2019,08,05,11,02,22.90
2019,08,05,11,03,22.90
2019,08,05,11,04,22.90
2019,08,05,11,05,22.90
2019,08,05,11,06,22.80
2019,08,05,11,07,22.80
2019,08,05,11,08,22.80
2019,08,05,11,09,22.80
2019,08,05,11,10,22.80
2019,08,05,11,11,22.70
2019,08,05,11,12,22.60
2019,08,05,11,13,22.60
2019,08,05,11,14,22.60
2019,08,05,11,15,22.60
2019,08,05,11,16,22.60
2019,08,05,11,17,22.70
2019,08,05,11,18,22.70
2019,08,05,11,19,22.80
2019,08,05,11,20,22.80
2019,08,05,11,21,22.80
2019,08,05,11,22,22.90
2019,08,05,11,23,22.90
2019,08,05,11,24,22.90
2019,08,05,11,25,23.10
2019,08,05,11,26,23.10
2019,08,05,11,27,23.10
2019,08,05,11,28,23.20
2019,08,05,11,29,23.20
2019,08,05,11,30,23.20
2019,08,05,11,31,23.30
2019,08,05,11,32,23.30
2019,08,05,11,33,23.30
2019,08,05,11,34,23.30
2019,08,05,11,35,23.20
2019,08,05,11,36,23.20
2019,08,05,11,37,23.20
2019,08,05,11,38,23.20
2019,08,05,11,39,23.30
2019,08,05,11,40,23.30
2019,08,05,11,41,23.40
2019,08,05,11,42,23.40
2019,08,05,11,43,23.50
2019,08,05,11,44,23.60
2019,08,05,11,45,23.60
2019,08,05,11,46,23.50
2019,08,05,11,47,23.50
2019,08,05,11,48,23.50
2019,08,05,11,49,23.50
2019,08,05,11,50,23.50
2019,08,05,11,51,23.40
2019,08,05,11,52,23.40
2019,08,05,11,53,23.40
2019,08,05,11,54,23.40
2019,08,05,11,55,23.40
2019,08,05,11,56,23.40
2019,08,05,11,57,23.50
2019,08,05,11,58,23.50
2019,08,05,11,59,23.60
2019,08,05,12,00,23.70
2019,08,05,12,01,23.70
2019,08,05,12,02,23.80
2019,08,05,12,03,23.80
2019,08,05,12,04,23.80
2019,08,05,12,05,23.80
2019,08,05,12,06,23.80
2019,08,05,12,07,23.80
2019,08,05,12,08,23.80
2019,08,05,12,09,23.80
2019,08,05,12,10,23.80
2019,08,05,12,11,23.90
2019,08,05,12,12,24.00
2019,08,05,12,13,24.10
2019,08,05,12,14,24.10
2019,08,05,12,15,24.10
2019,08,05,12,16,24.10
2019,08,05,12,17,24.10
2019,08,05,12,18,24.10
2019,08,05,12,19,24.10
2019,08,05,12,20,24.10
2019,08,05,12,21,24.10
2019,08,05,12,22,24.20
2019,08,05,12,23,24.20
2019,08,05,12,24,24.20
2019,08,05,12,25,24.20
2019,08,05,12,26,24.20
2019,08,05,12,27,24.30
2019,08,05,12,28,24.30
2019,08,05,12,29,24.40
2019,08,05,12,30,24.40
2019,08,05,12,31,24.50
2019,08,05,12,32,24.60
2019,08,05,12,33,24.60
2019,08,05,12,34,24.70
2019,08,05,12,35,24.70
2019,08,05,12,36,24.80
2019,08,05,12,37,24.80
2019,08,05,12,38,24.80
2019,08,05,12,39,24.90
2019,08,05,12,40,24.90
2019,08,05,12,41,24.90
2019,08,05,12,42,24.90
2019,08,05,12,43,24.90
2019,08,05,12,44,24.90
2019,08,05,12,45,24.90
2019,08,05,12,46,25.00
2019,08,05,12,47,25.00
2019,08,05,12,48,25.00
2019,08,05,12,49,24.90
2019,08,05,12,50,25.00
2019,08,05,12,51,25.00
2019,08,05,12,52,25.10
2019,08,05,12,53,25.10
2019,08,05,12,54,25.10
2019,08,05,12,55,25.20
2019,08,05,12,56,25.30
2019,08,05,12,57,25.30
2019,08,05,12,58,25.40
2019,08,05,12,59,25.40
2019,08,05,13,00,25.50
2019,08,05,13,01,25.60
2019,08,05,13,02,25.60
2019,08,05,13,03,25.70
2019,08,05,13,04,25.70
2019,08,05,13,05,25.70
2019,08,05,13,06,25.70
2019,08,05,13,07,25.70
2019,08,05,13,08,25.60
2019,08,05,13,09,25.50
2019,08,05,13,10,25.40
2019,08,05,13,11,25.40
2019,08,05,13,12,25.40
2019,08,05,13,13,25.40
2019,08,05,13,14,25.30
2019,08,05,13,15,25.30
2019,08,05,13,16,25.30
2019,08,05,13,17,25.20
2019,08,05,13,18,25.20
2019,08,05,13,19,25.20
2019,08,05,13,20,25.20
2019,08,05,13,21,25.10
2019,08,05,13,22,25.10
2019,08,05,13,23,25.10
2019,08,05,13,24,25.10
2019,08,05,13,25,25.10
2019,08,05,13,26,25.10
2019,08,05,13,27,25.10
2019,08,05,13,28,25.10
2019,08,05,13,29,25.10
2019,08,05,13,30,25.10
2019,08,05,13,31,25.10
2019,08,05,13,32,25.10
2019,08,05,13,33,25.00
2019,08,05,13,34,24.90
2019,08,05,13,35,24.90
2019,08,05,13,36,24.90
2019,08,05,13,37,24.90
2019,08,05,13,38,24.90
2019,08,05,13,39,25.00
2019,08,05,13,40,25.00
2019,08,05,13,41,25.10
2019,08,05,13,42,25.10
2019,08,05,13,43,25.10
2019,08,05,13,44,25.10
2019,08,05,13,45,25.20
2019,08,05,13,46,25.20
2019,08,05,13,47,25.20
2019,08,05,13,48,25.30
2019,08,05,13,49,25.40
2019,08,05,13,50,25.50
2019,08,05,13,51,25.60
2019,08,05,13,52,25.70
2019,08,05,13,53,25.70
2019,08,05,13,54,25.80
2019,08,05,13,55,25.90
2019,08,05,13,56,26.10
2019,08,05,13,57,26.10
2019,08,05,13,58,26.20
2019,08,05,13,59,26.20
2019,08,05,14,00,26.20
2019,08,05,14,01,26.30
2019,08,05,14,02,26.40
2019,08,05,14,03,26.60
2019,08,05,14,04,26.60
2019,08,05,14,05,26.70
2019,08,05,14,06,26.80
2019,08,05,14,07,26.80
2019,08,05,14,08,26.80
2019,08,05,14,09,26.90
2019,08,05,14,10,26.90
2019,08,05,14,11,27.00
2019,08,05,14,12,27.10
2019,08,05,14,13,27.20
2019,08,05,14,14,27.20
2019,08,05,14,15,27.20
2019,08,05,14,16,27.20
2019,08,05,14,17,27.20
2019,08,05,14,18,27.20
2019,08,05,14,19,27.30
2019,08,05,14,20,27.30
2019,08,05,14,21,27.30
2019,08,05,14,22,27.30
2019,08,05,14,23,27.30
2019,08,05,14,24,27.30
2019,08,05,14,25,27.30
2019,08,05,14,26,27.30
2019,08,05,14,27,27.30
2019,08,05,14,28,27.30
2019,08,05,14,29,27.30
2019,08,05,14,30,27.30
2019,08,05,14,31,27.30
2019,08,05,14,32,27.40
2019,08,05,14,33,27.40
2019,08,05,14,34,27.50
2019,08,05,14,35,27.50
2019,08,05,14,36,27.40
2019,08,05,14,37,27.40
2019,08,05,14,38,27.40
2019,08,05,14,39,27.40
2019,08,05,14,40,27.40
2019,08,05,14,41,27.40
2019,08,05,14,42,27.40
2019,08,05,14,43,27.40
2019,08,05,14,44,27.40
2019,08,05,14,45,27.50
2019,08,05,14,46,27.50
2019,08,05,14,47,27.40
2019,08,05,14,48,27.40
2019,08,05,14,49,27.30
2019,08,05,14,50,27.30
2019,08,05,14,51,27.30
2019,08,05,14,52,27.40
2019,08,05,14,53,27.40
2019,08,05,14,54,27.40
2019,08,05,14,55,27.30
2019,08,05,14,56,27.30
2019,08,05,14,57,27.30
2019,08,05,14,58,27.30
2019,08,05,14,59,27.30
2019,08,05,15,00,27.30
2019,08,05,15,01,27.30
2019,08,05,15,02,27.30
2019,08,05,15,03,27.40
2019,08,05,15,04,27.40
2019,08,05,15,05,27.50
2019,08,05,15,06,27.50
2019,08,05,15,07,27.50
2019,08,05,15,08,27.40
2019,08,05,15,09,27.40
2019,08,05,15,10,27.30
2019,08,05,15,11,27.30
2019,08,05,15,12,27.30
2019,08,05,15,13,27.40
2019,08,05,15,14,27.50
2019,08,05,15,15,27.60
2019,08,05,15,16,27.80
2019,08,05,15,17,27.80
2019,08,05,15,18,27.90
2019,08,05,15,19,28.10
2019,08,05,15,20,28.10
2019,08,05,15,21,28.10
2019,08,05,15,22,28.10
2019,08,05,15,23,28.10
2019,08,05,15,24,28.00
2019,08,05,15,25,28.00
2019,08,05,15,26,28.10
2019,08,05,15,27,28.10
2019,08,05,15,28,28.10
2019,08,05,15,29,28.10
2019,08,05,15,30,28.20
2019,08,05,15,31,28.20
2019,08,05,15,32,28.30
2019,08,05,15,33,28.30
2019,08,05,15,34,28.40
2019,08,05,15,35,28.40
2019,08,05,15,36,28.50
2019,08,05,15,37,28.60
2019,08,05,15,38,28.60
2019,08,05,15,39,28.60
2019,08,05,15,40,28.60
2019,08,05,15,41,28.50
2019,08,05,15,42,28.40
2019,08,05,15,43,28.30
2019,08,05,15,44,28.30
2019,08,05,15,45,28.20
2019,08,05,15,46,28.20
2019,08,05,15,47,28.20
2019,08,05,15,48,28.10
2019,08,05,15,49,28.10
2019,08,05,15,50,28.20
2019,08,05,15,51,28.20
2019,08,05,15,52,28.20
2019,08,05,15,53,28.20
2019,08,05,15,54,28.30
2019,08,05,15,55,28.30
2019,08,05,15,56,28.30
2019,08,05,15,57,28.30
2019,08,05,15,58,28.30
2019,08,05,15,59,28.30
2019,08,05,16,00,28.20
2019,08,05,16,01,28.10
2019,08,05,16,02,27.90
2019,08,05,16,03,27.80
2019,08,05,16,04,27.70
2019,08,05,16,05,27.70
2019,08,05,16,06,27.60
2019,08,05,16,07,27.60
2019,08,05,16,08,27.60
2019,08,05,16,09,27.60
2019,08,05,16,10,27.60
2019,08,05,16,11,27.60
2019,08,05,16,12,27.50
2019,08,05,16,13,27.50
2019,08,05,16,14,27.40
2019,08,05,16,15,27.40
2019,08,05,16,16,27.30
2019,08,05,16,17,27.40
2019,08,05,16,18,27.40
2019,08,05,16,19,27.40
2019,08,05,16,20,27.30
2019,08,05,16,21,27.30
2019,08,05,16,22,27.30
2019,08,05,16,23,27.30
2019,08,05,16,24,27.30
2019,08,05,16,25,27.30
2019,08,05,16,26,27.20
2019,08,05,16,27,27.20
2019,08,05,16,28,27.20
2019,08,05,16,29,27.20
2019,08,05,16,30,27.20
2019,08,05,16,31,27.20
2019,08,05,16,32,27.20
2019,08,05,16,33,27.10
2019,08,05,16,34,27.10
2019,08,05,16,35,27.00
2019,08,05,16,36,26.90
2019,08,05,16,37,26.90
2019,08,05,16,38,26.90
2019,08,05,16,39,26.90
2019,08,05,16,40,26.90
2019,08,05,16,41,26.80
2019,08,05,16,42,26.80
2019,08,05,16,43,26.80
2019,08,05,16,44,26.70
2019,08,05,16,45,26.70
2019,08,05,16,46,26.70
2019,08,05,16,47,26.60
2019,08,05,16,48,26.60
2019,08,05,16,49,26.60
2019,08,05,16,50,26.50
2019,08,05,16,51,26.60
2019,08,05,16,52,26.60
2019,08,05,16,53,26.60
2019,08,05,16,54,26.50
2019,08,05,16,55,26.50
2019,08,05,16,56,26.50
2019,08,05,16,57,26.50
2019,08,05,16,58,26.40
2019,08,05,16,59,26.40
2019,08,05,17,00,26.40
2019,08,05,17,01,26.40
2019,08,05,17,02,26.40
2019,08,05,17,03,26.40
2019,08,05,17,04,26.40
2019,08,05,17,05,26.40
2019,08,05,17,06,26.40
2019,08,05,17,07,26.40
2019,08,05,17,08,26.40
2019,08,05,17,09,26.40
2019,08,05,17,10,26.30
2019,08,05,17,11,26.30
2019,08,05,17,12,26.20
2019,08,05,17,13,26.20
2019,08,05,17,14,26.10
2019,08,05,17,15,26.00
2019,08,05,17,16,25.90
2019,08,05,17,17,25.90
2019,08,05,17,18,26.00
2019,08,05,17,19,26.00